Preview of NWS' New Version of Forecast
This preview is not operational and should not be used for support decisions.

Regional Weather Roundup (RWR)

Issued by National Weather Service (NWS)

                            
000
ASUS45 KBOU 152110
RWRCO 

WEATHER ROUNDUP FOR COLORADO
NATIONAL WEATHER SERVICE DENVER/BOULDER CO
300 PM MDT MON OCT 15 2018

NOTE: "FAIR" INDICATES FEW OR NO CLOUDS BELOW 12000 FEET WITH NO
SIGNIFICANT WEATHER AND/OR OBSTRUCTIONS TO VISIBILITY.

COZ001>005-013-030-031-152200-
...NORTHWEST COLORADO...
  
CITY           SKY/WX    TMP DP  RH WIND       PRES   REMARKS
CRAIG          FAIR      41  12  30 CALM      30.37F                  
HAYDEN         FAIR      38   9  30 CALM      30.38F                  
MEEKER         NOT AVBL                                               
RANGELY        FAIR      45  13  27 E7        30.37F                  
RABBIT EARS PA MOCLDY    23  18  80 CALM      30.33S                  
STEAMBOAT SPGS FAIR      36  15  42 CALM      30.35F                  
WALDEN         NOT AVBL                                               
$$

COZ006>008-011-152200-
...WEST CENTRAL VALLEYS...
  
CITY           SKY/WX    TMP DP  RH WIND       PRES   REMARKS
GRAND JUNCTION FAIR      51  13  21 NE10G20   30.30F                  
MONTROSE       FAIR      42  14  32 NW6       30.32F                  
EAGLE          FAIR      42  14  32 CALM      30.36F                  
RIFLE          FAIR      47  11  23 CALM      30.32F                  
DELTA          NOT AVBL                                               
NUCLA          NOT AVBL                                               
$$

COZ017>023-064>068-152200-
...SOUTHWEST COLORADO...
  
CITY           SKY/WX    TMP DP  RH WIND       PRES   REMARKS
DURANGO        FAIR      47  12  24 NW6       30.23F                  
CORTEZ         FAIR      49  20  31 SW8       30.23F                  
PAGOSA SPRINGS NOT AVBL                                               
TELLURIDE      FAIR      37  12  35 W13G18    30.25S                  
WOLF CREEK PAS FAIR      28   5  37 W6        30.35R WCI  22          
$$

COZ009-010-012-014-032>034-037-058>063-152200-
...CENTRAL COLORADO...
  
CITY           SKY/WX    TMP DP  RH WIND       PRES   REMARKS
ASPEN          FAIR      40  12  32 N6        30.29F                  
BUENA VISTA    NOT AVBL                                               
COPPER MTN     FAIR      25  12  58 NW5       30.31S HAZE    WCI  19  
BERTHOUD PASS  FAIR      10  -4  52 N8G17     30.31R WCI  -1          
COTTONWOOD PAS FAIR      34   5  29 SE6       30.29S WCI  29          
GUNNISON       FAIR      43  -5  13 CALM      30.25F                  
GRANBY         FAIR      32  10  40 CALM      30.35F                  
KREMMLING      FAIR      36  12  38 CALM      30.36F                  
LEADVILLE      FAIR      33   4  29 NW10      30.27S WCI  25          
MONARCH PASS   FAIR      25  10  54 MISG      30.39S                  
SALIDA         NOT AVBL                                               
SUNLIGHT       FAIR      21   7  53 CALM      30.36S                  
WILKERSON PASS FAIR      27  -4  26 CALM      30.33R                  
$$

COZ069>075-152200-
...SAN LUIS VALLEY/SANGRE DE CRISTO MOUNTAINS...
  
CITY           SKY/WX    TMP DP  RH WIND       PRES   REMARKS
ALAMOSA        FAIR      45  15  30 VRB3      30.24F                  
DEL NORTE      NOT AVBL                                               
LA VETA PASS   NOT AVBL                                               
SAGUACHE       FAIR      45  12  26 CALM      30.25S                  
$$

COZ035-036-038>040-152200-
...NORTHERN COLORADO FRONT RANGE...
  
CITY           SKY/WX    TMP DP  RH WIND       PRES   REMARKS
DENVER INTL AP FAIR      47   5  18 NW10      30.31S                  
AURORA         MOSUNNY   46   8  21 N5        30.32R                  
FRONT RANGE AP MOSUNNY   45   9  23 N6        30.33F                  
ERIE MUNI ARPT FAIR      46  12  25 CALM      30.37S                  
BOULDER MUN AP FAIR      43  21  42 N3        30.32S                  
CENTENNIAL     FAIR      44  11  26 CALM      30.31S                  
BROOMFIELD     MOSUNNY   46   7  19 NE3       30.32S                  
FORT COLLINS   FAIR      43  17  35 SW5       30.32F                  
LONGMONT       NOT AVBL                                               
$$

COZ041-046-047-076>085-087-088-152200-
...PIKES PEAK/PALMER DIVIDE AND SOUTHERN FOOTHILLS...
  
CITY           SKY/WX    TMP DP  RH WIND       PRES   REMARKS
COLO. SPRINGS  FAIR      41  17  38 VRB5      30.33S                  
A. F. ACADEMY  FAIR      41  11  29 S12       30.30S                  
SCHRIEVER AFB  NOT AVBL                                               
CHEYENNE MTN   FAIR      37  20  49 SE5       30.26S                  
ELLICOTT         N/A    N/A N/A N/A SE5       30.31F                  
FALCON         NOT AVBL                                               
FORT CARSON    FAIR      40  21  46 CALM      30.32F                  
LIMON          FAIR      41  16  36 VRB6      30.33F                  
MONUMENT HILL  FAIR      36  14  41 N3        30.32S                  
CANON CITY     FAIR      43  28  56 CALM      30.33S                  
WALSENBURG     NOT AVBL                                               
TRINIDAD       FAIR      40  19  43 SE6       30.34S                  
$$

COZ042>045-048>051-090-091-152200-
...NORTHEAST COLORADO...
  
CITY           SKY/WX    TMP DP  RH WIND       PRES   REMARKS
GREELEY ARPT   FAIR      44  23  43 SW7       30.33F                  
AKRON          FAIR      44  17  33 NW14      30.31F                  
BURLINGTON     FAIR      46  19  34 N12G22    30.33F                  
WRAY           NOT AVBL                                               
YUMA           FAIR      46  18  31 NW13      30.31F                  
STERLING       FAIR      46  18  31 W16       30.30F                  
HOLYOKE        FAIR      52  21  30 NW12G18   30.31F                  
FORT MORGAN    NOT AVBL                                               
$$

COZ086-089-092>099-152200-
...SOUTHEAST COLORADO...
  
CITY           SKY/WX    TMP DP  RH WIND       PRES   REMARKS
PUEBLO         FAIR      46  22  38 CALM      30.34F                  
LA JUNTA       FAIR      48  15  26 MISG      30.35F                  
LAMAR          FAIR      49  15  25 MISG      30.34F                  
SPRINGFIELD      N/A     41  21  44 VRB6      30.35S                  
$$